STARLINK-32000 (60289 NORAD) Tracking and Keplerian Element Data

This shows tracking and keplerian element data for the satellite.

Feedback or suggestion? Click here.




ElementValue
Catalog60289
NameSTARLINK-32000
Epoch Orbit1301
Epoch Day286.67530282
Epoch Year2024
RAAN275.4724
Inclination53.1576
Eccentricity0.0001196
Argument of Perigee101.794
Mean Anonmoly258.3195
Mean Motion15.30205462
Decay Rate0.00020077
L11 60289U 24132M 24286.67530282 .00020077 00000+0 68803-3 0 9995
L22 60289 53.1576 275.4724 0001196 101.7940 258.3195 15.30205462 13010



Live tracking and technical data element details for STARLINK-32000 (NORAD 60289). STARLINK-32000 can be tracked NOW for your location showing map with azimuth and elevation plus other details from your city location.







IsCatalogInMostPopularTable: catalog: 60289, numindb: 10
Update: records affected: 1



GetName: 60289 STARLINK-32000

Hit Count: updated at: Thu, 23 Jan 2025 14:49:23 GMT